#timestamp,LO_Frequency,Hit,StdDev 
1688018415.6,286046998.9,N
1688018435.5,286046999.2,N
1688018455.3,286046999.6,N
1688018475.2,286046999.0,N
1688018495.9,286046998.9,N
1688018515.7,286046998.2,N
1688018535.6,286046998.3,N
1688018555.4,286046998.5,N
1688018575.3,286046996.5,Y
1688018595.1,286046998.7,P
1688018596.0,286046998.7,N
1688018615.8,286046999.1,N
1688018635.7,286046998.6,Y
1688018655.5,286047000.8,P
1688018675.4,286047000.4,N
1688018695.2,286047001.2,N
1688018715.0,286046998.9,N
1688018715.9,286046998.9,N
1688018735.8,286046999.3,N
1688018755.6,286046997.3,Y
1688018775.4,286046999.2,P
1688018795.3,286046998.9,P
1688018815.1,286046999.0,N
1688018835.9,286047001.2,Y
1688018855.7,286047000.6,P
1688018875.5,286047000.4,N
1688018895.4,286046998.8,N
1688018915.2,286046998.4,N
1688018935.1,286046998.5,N
1688018936.0,286046998.5,N
1688018955.8,286046998.4,N
1688018975.6,286047001.1,N
1688018995.5,286046998.5,N
1688019015.3,286046998.7,N
1688019035.1,286046998.2,N
1688019055.9,286046998.4,N
1688019075.7,286046998.4,N
1688019095.6,286047000.1,N
1688019115.4,286046999.9,N
1688019135.2,286047000.8,N
1688019155.1,286047000.8,N
1688019156.0,286047000.8,N
1688019175.8,286047000.7,N
1688019195.6,286047000.9,N
1688019215.5,286046999.7,N
1688019235.3,286046999.9,N
1688019255.2,286047002.2,N
1688019275.9,286047002.3,N
1688019295.7,286047002.3,N
1688019315.6,286047002.7,N
1688019335.4,286047000.1,N
1688019355.2,286047000.0,N
1688019375.1,286047000.2,N
1688019376.0,286047000.2,N
1688019395.8,286047002.2,N
1688019415.7,286047002.5,N
1688019435.5,286047002.2,N
1688019455.3,286047004.2,N
1688019475.2,286047012.2,Y
1688019495.0,286047008.4,P
1688019495.9,286047008.4,N
1688019515.8,286047007.8,N
1688019535.6,286047006.5,N
1688019555.4,286047006.7,N
1688019575.3,286047005.3,N
1688019595.1,286047005.5,N
1688019615.8,286047005.2,N
1688019635.7,286047007.3,Y
1688019655.5,286047000.4,P
1688019675.4,286046999.8,N
1688019695.2,286046999.7,N
1688019715.0,286047000.2,N
1688019715.9,286047000.2,N
1688019735.8,286047000.2,N
1688019755.6,286047000.5,N
1688019775.5,286047000.3,N
1688019795.3,286047000.7,N
1688019815.1,286047001.2,N
1688019835.9,286047000.7,N
1688019855.5,286047001.0,N
1688019875.3,286047000.5,N
1688019895.1,286046999.9,N
1688019915.9,286046998.2,N
1688019935.7,286046998.7,N
1688019955.6,286046999.9,N
1688019975.6,286047000.9,N
1688019995.5,286047000.4,N
1688020015.3,286047000.8,N
1688020035.1,286047000.7,N
1688020055.9,286047000.9,N
1688020075.7,286047000.4,N
1688020095.6,286047000.7,N
1688020115.4,286047001.0,N
1688020135.2,286047000.8,N
1688020155.1,286046998.5,N
1688020156.0,286046998.5,N
1688020175.8,286046998.2,N
1688020195.6,286046998.2,N
1688020215.5,286046998.9,N
1688020235.3,286047001.1,N
1688020255.2,286047000.9,N
1688020275.9,286046999.7,N
1688020295.7,286047000.2,N
1688020315.6,286047000.1,N
1688020335.4,286047002.6,N
1688020355.2,286047002.4,N
1688020375.1,286047002.0,N
1688020376.0,286047002.0,N
1688020395.8,286047002.6,N
1688020415.7,286047000.2,N
1688020435.5,286047000.0,N
1688020455.3,286047002.8,N
1688020475.2,286046999.9,N
1688020495.0,286046999.9,N
1688020495.9,286046999.9,N
1688020515.8,286046999.9,N
1688020535.6,286047000.3,N
1688020555.4,286046999.8,N
1688020575.3,286047002.4,N
1688020595.1,286047002.7,N
1688020615.8,286046999.8,N
1688020635.7,286046999.7,N
1688020655.5,286047002.7,N
1688020675.4,286047000.2,N
1688020695.2,286047002.8,N
1688020715.0,286047000.7,N
1688020716.0,286047000.7,N
1688020735.8,286047000.0,N
1688020755.6,286047000.5,N
1688020775.5,286047000.5,N
1688020795.3,286047002.7,N
1688020815.1,286046999.8,N
1688020835.9,286046999.8,N
1688020855.7,286046999.7,N
1688020875.6,286047000.6,N
1688020895.4,286047000.1,N
1688020915.2,286047001.2,N
1688020935.1,286047000.5,N
1688020936.0,286047000.5,N
1688020955.8,286047000.6,N
1688020975.7,286047002.8,N
1688020995.5,286047002.4,N
1688021015.3,286046999.8,N
1688021035.2,286047000.2,N
1688021055.0,286047002.4,N
1688021055.9,286047002.4,N
1688021075.8,286047002.7,N
1688021095.6,286046999.7,N
1688021115.4,286047002.3,N
1688021135.3,286047002.0,N
1688021155.1,286047001.4,N
1688021175.8,286047002.2,N
1688021195.7,286047002.1,N
1688021215.5,286047001.7,N
1688021235.4,286047003.9,Y
1688021255.2,286047002.4,P
1688021275.0,286047001.9,P
1688021275.9,286047001.9,P
1688021295.8,286047001.8,Y
1688021315.6,286047000.2,P
1688021335.5,286046999.9,N
1688021355.3,286047001.1,N
1688021375.1,286046998.2,N
1688021395.9,286046998.2,N
1688021415.7,286046998.5,N
1688021435.5,286047001.0,N
1688021455.4,286047001.1,N
1688021475.2,286046998.5,N
1688021495.1,286046999.0,N
1688021496.0,286046999.0,N
1688021515.8,286046998.7,N
1688021535.6,286046998.2,N
1688021555.5,286046998.8,N
1688021575.3,286046998.7,N
1688021595.1,286046998.3,N
1688021615.9,286046998.6,N
1688021635.7,286047001.0,N
1688021655.6,286046998.7,N
1688021675.4,286046998.5,N
1688021695.2,286046998.1,N
1688021715.1,286046998.6,N
1688021716.0,286046998.6,N
1688021735.8,286046998.9,N
1688021755.7,286046998.3,N
1688021775.5,286046998.8,N
1688021795.3,286046998.2,N
1688021815.2,286046998.5,N
1688021835.0,286047000.7,N
1688021835.9,286047000.7,N
1688021855.8,286047000.9,N
1688021875.6,286046998.5,N
1688021895.4,286047000.7,N
1688021915.3,286046998.5,N
1688021935.1,286046998.3,N
1688021955.9,286047001.2,N
1688021975.7,286046998.4,N
1688021995.5,286046998.2,N
